Greensboro, GA

6:12 AM EDT on August 27, 2016 (GMT -0400)
Greensboro

Weather History for K3J7 - March, 2013

Change the Weather History Date:

Wednesday, March 6, 2013

  Actual Average (KDBN) Record (KDBN)
Temperature  
Mean Temperature 38 °F -  
Max Temperature 44 °F 70 °F 89 °F (1961)
Min Temperature 33 °F 43 °F 19 °F (1960)
Degree Days  
Heating Degree Days 26    
Moisture  
Dew Point 26 °F    
Average Humidity 61    
Maximum Humidity 81    
Minimum Humidity 49    
Precipitation  
Precipitation 0.00 in - - ()
Sea Level Pressure  
Sea Level Pressure 29.98 in    
Wind  
Wind Speed 12 mph (West)    
Max Wind Speed 20 mph    
Max Gust Speed 34 mph    
Visibility 10 miles    
Events      
Averages and records for this station are not official NWS values.
T = Trace of Precipitation, MM = Missing Value Source: NWS Daily Summary

Daily Weather History Graph

Daily Weather History Graph

Search for Another Location

Airport or City:

Trip Planner

Search our weather history database for the weather conditions in past years. The results will help you decide how hot, cold, wet, or windy it might be!

Date:

Astronomy

Mar. 06, 2013 Rise Set
Actual Time 6:54 AM EST 6:33 PM EST
Civil Twilight 6:29 AM EST 6:58 PM EST
Nautical Twilight 6:00 AM EST 7:27 PM EST
Astronomical Twilight 5:31 AM EST 7:56 PM EST
Moon 2:50 AM EST (3/6) 1:25 PM EST (3/6)
Length of Visible Light 12h 28m
Length of Day
11h 39m
Waning Crescent, 30% of the Moon is Illuminated
Mar 6
Waning Crescent
Mar 11
New
Mar 19
First Quarter
Mar 27
Full
Apr 3
Last Quarter

Hourly Weather History & Observations

Time (EST) Temp. Windchill Dew Point Humidity Pressure Visibility Wind Dir Wind Speed Gust Speed Precip Events Conditions
12:15 AM 41.0 °F 32.8 °F 30.2 °F 65% 29.85 in 10.0 mi West 16.1 mph 24.2 mph N/A   Overcast
12:35 AM 41.0 °F 32.2 °F 28.4 °F 61% 29.85 in 10.0 mi West 18.4 mph 26.5 mph N/A   Overcast
12:55 AM 41.0 °F 32.2 °F 28.4 °F 61% 29.85 in 10.0 mi West 18.4 mph 26.5 mph N/A   Overcast
1:15 AM 41.0 °F 33.5 °F 26.6 °F 57% 29.85 in 10.0 mi West 13.8 mph 24.2 mph N/A   Overcast
1:35 AM 41.0 °F 35.2 °F 26.6 °F 57% 29.85 in 10.0 mi West 9.2 mph 20.7 mph N/A   Overcast
1:55 AM 41.0 °F 34.3 °F 28.4 °F 61% 29.85 in 10.0 mi West 11.5 mph 20.7 mph N/A   Overcast
2:15 AM 41.0 °F 35.2 °F 28.4 °F 61% 29.85 in 10.0 mi West 9.2 mph 17.3 mph N/A   Mostly Cloudy
2:35 AM 39.2 °F 32.5 °F 28.4 °F 65% 29.84 in 10.0 mi West 10.4 mph 19.6 mph N/A   Scattered Clouds
2:55 AM 41.0 °F 34.7 °F 26.6 °F 57% 29.83 in 10.0 mi West 10.4 mph 19.6 mph N/A   Mostly Cloudy
3:15 AM 41.0 °F 35.2 °F 26.6 °F 57% 29.83 in 10.0 mi West 9.2 mph 21.9 mph N/A   Mostly Cloudy
3:35 AM 39.2 °F 33.6 °F 26.6 °F 61% 29.83 in 10.0 mi West 8.1 mph 17.3 mph N/A   Mostly Cloudy
3:55 AM 41.0 °F 34.7 °F 28.4 °F 61% 29.82 in 10.0 mi West 10.4 mph - N/A   Overcast
4:15 AM 39.2 °F 29.6 °F 28.4 °F 65% 29.84 in 10.0 mi West 19.6 mph 31.1 mph N/A   Overcast
4:35 AM 37.4 °F 27.2 °F 26.6 °F 65% 29.85 in 10.0 mi West 19.6 mph 31.1 mph N/A   Overcast
4:55 AM 35.6 °F 25.9 °F 23.0 °F 60% 29.85 in 10.0 mi West 16.1 mph 29.9 mph N/A   Scattered Clouds
5:15 AM 35.6 °F 26.6 °F 21.2 °F 56% 29.87 in 10.0 mi West 13.8 mph 26.5 mph N/A   Clear
5:35 AM 35.6 °F 25.9 °F 21.2 °F 56% 29.87 in 10.0 mi West 16.1 mph 26.5 mph N/A   Clear
5:55 AM 33.8 °F 24.3 °F 21.2 °F 60% 29.89 in 10.0 mi West 13.8 mph 23.0 mph N/A   Clear
6:15 AM 33.8 °F 24.8 °F 19.4 °F 56% 29.90 in 10.0 mi West 12.7 mph 24.2 mph N/A   Clear
6:35 AM 33.8 °F 24.8 °F 19.4 °F 56% 29.90 in 10.0 mi West 12.7 mph 19.6 mph N/A   Clear
6:55 AM 33.8 °F 24.3 °F 21.2 °F 60% 29.93 in 10.0 mi West 13.8 mph 21.9 mph N/A   Scattered Clouds
7:15 AM 33.8 °F 26.4 °F 21.2 °F 60% 29.93 in 10.0 mi West 9.2 mph 21.9 mph N/A   Overcast
7:35 AM 33.8 °F 26.4 °F 21.2 °F 60% 29.93 in 10.0 mi West 9.2 mph 18.4 mph N/A   Overcast
7:55 AM 33.8 °F 26.4 °F 21.2 °F 60% 29.94 in 10.0 mi West 9.2 mph 17.3 mph N/A   Overcast
8:15 AM 35.6 °F 28.6 °F 23.0 °F 60% 29.93 in 10.0 mi West 9.2 mph - N/A   Overcast
8:35 AM 35.6 °F 28.0 °F 23.0 °F 60% 29.95 in 10.0 mi West 10.4 mph 20.7 mph N/A   Mostly Cloudy
8:55 AM 35.6 °F 28.0 °F 23.0 °F 60% 29.95 in 10.0 mi West 10.4 mph 21.9 mph N/A   Mostly Cloudy
9:15 AM 37.4 °F 28.5 °F 23.0 °F 56% 29.96 in 10.0 mi West 15.0 mph 21.9 mph N/A   Mostly Cloudy
9:35 AM 37.4 °F 31.4 °F 23.0 °F 56% 29.97 in 10.0 mi West 8.1 mph 20.7 mph N/A   Unknown
9:55 AM 37.4 °F 29.8 °F 23.0 °F 56% 29.97 in - West 11.5 mph - N/A   Unknown
10:15 AM 37.4 °F 29.3 °F 23.0 °F 56% 29.98 in 10.0 mi WNW 12.7 mph 25.3 mph N/A   Mostly Cloudy
10:35 AM 41.0 °F 32.5 °F 23.0 °F 49% 29.98 in 10.0 mi WNW 17.3 mph 26.5 mph N/A   Overcast
10:55 AM 41.0 °F 31.9 °F 23.0 °F 49% 29.98 in 10.0 mi WNW 19.6 mph 34.5 mph N/A   Mostly Cloudy
11:15 AM 41.0 °F 33.9 °F 24.8 °F 53% 29.99 in 10.0 mi WNW 12.7 mph 26.5 mph N/A   Mostly Cloudy
11:35 AM 41.0 °F 32.8 °F 24.8 °F 53% 30.00 in 10.0 mi West 16.1 mph 24.2 mph N/A   Mostly Cloudy
11:55 AM 41.0 °F 35.2 °F 26.6 °F 57% 30.00 in 10.0 mi West 9.2 mph 23.0 mph N/A   Overcast
12:15 PM 41.0 °F 34.3 °F 26.6 °F 57% 30.00 in 10.0 mi West 11.5 mph 23.0 mph N/A   Overcast
12:35 PM 42.8 °F 35.4 °F 26.6 °F 53% 30.00 in 10.0 mi West 15.0 mph 26.5 mph N/A   Overcast
12:55 PM 41.0 °F 34.3 °F 26.6 °F 57% 30.01 in 10.0 mi WNW 11.5 mph 23.0 mph N/A   Overcast
1:15 PM 41.0 °F 32.8 °F 26.6 °F 57% 30.00 in 10.0 mi West 16.1 mph 24.2 mph N/A   Overcast
1:35 PM 42.8 °F 35.1 °F 26.6 °F 53% 29.99 in 10.0 mi West 16.1 mph 20.7 mph N/A   Mostly Cloudy
1:55 PM 42.8 °F 36.2 °F 26.6 °F 53% 29.99 in 10.0 mi WNW 12.7 mph 25.3 mph N/A   Mostly Cloudy
2:15 PM 42.8 °F 35.1 °F 26.6 °F 53% 30.00 in 10.0 mi West 16.1 mph 27.6 mph N/A   Overcast
2:35 PM 44.6 °F 38.4 °F 26.6 °F 49% 29.99 in 10.0 mi West 12.7 mph 27.6 mph N/A   Scattered Clouds
2:55 PM 44.6 °F 39.2 °F 28.4 °F 53% 30.00 in 10.0 mi WNW 10.4 mph 28.8 mph N/A   Scattered Clouds
3:15 PM 44.6 °F 38.4 °F 26.6 °F 49% 30.01 in 10.0 mi WNW 12.7 mph 21.9 mph N/A   Mostly Cloudy
3:35 PM 44.6 °F 36.9 °F 28.4 °F 53% 30.02 in 10.0 mi West 18.4 mph 28.8 mph N/A   Scattered Clouds
3:55 PM 44.6 °F 37.8 °F 28.4 °F 53% 30.01 in 10.0 mi West 15.0 mph 26.5 mph N/A   Clear
4:15 PM 44.6 °F 37.8 °F 28.4 °F 53% 30.02 in 10.0 mi West 15.0 mph 26.5 mph N/A   Clear
4:35 PM 42.8 °F 37.0 °F 28.4 °F 57% 30.03 in 10.0 mi WNW 10.4 mph 21.9 mph N/A   Clear
4:55 PM 42.8 °F 36.2 °F 28.4 °F 57% 30.03 in 10.0 mi West 12.7 mph 25.3 mph N/A   Scattered Clouds
5:15 PM 42.8 °F 37.5 °F 28.4 °F 57% 30.03 in 10.0 mi WNW 9.2 mph 27.6 mph N/A   Clear
5:35 PM 41.0 °F 33.9 °F 28.4 °F 61% 30.04 in 10.0 mi WNW 12.7 mph 28.8 mph N/A   Clear
5:55 PM 41.0 °F 35.2 °F 28.4 °F 61% 30.04 in 10.0 mi WNW 9.2 mph 20.7 mph N/A   Clear
6:15 PM 41.0 °F 34.7 °F 28.4 °F 61% 30.06 in 10.0 mi WNW 10.4 mph 18.4 mph N/A   Clear
6:35 PM 39.2 °F 35.0 °F 28.4 °F 65% 30.07 in 10.0 mi West 5.8 mph - N/A   Clear
6:55 PM 37.4 °F 32.1 °F 28.4 °F 70% 30.07 in 10.0 mi WNW 6.9 mph - N/A   Clear
7:15 PM 37.4 °F 33.8 °F 28.4 °F 70% 30.08 in 10.0 mi West 4.6 mph - N/A   Clear
7:35 PM 37.4 °F 32.8 °F 28.4 °F 70% 30.09 in 10.0 mi WNW 5.8 mph - N/A   Clear
7:55 PM 37.4 °F 33.8 °F 28.4 °F 70% 30.09 in 10.0 mi WNW 4.6 mph - N/A   Clear
8:15 PM 37.4 °F 32.8 °F 28.4 °F 70% 30.09 in 10.0 mi WNW 5.8 mph - N/A   Clear
8:35 PM 37.4 °F 33.8 °F 28.4 °F 70% 30.08 in 10.0 mi WNW 4.6 mph - N/A   Clear
8:55 PM 35.6 °F 31.7 °F 28.4 °F 75% 30.09 in 10.0 mi WNW 4.6 mph - N/A   Clear
9:15 PM 35.6 °F 30.7 °F 28.4 °F 75% 30.09 in 10.0 mi WNW 5.8 mph - N/A   Clear
9:35 PM 35.6 °F 32.8 °F 28.4 °F 75% 30.10 in 10.0 mi WNW 3.5 mph - N/A   Clear
9:55 PM 35.6 °F - 28.4 °F 75% 30.10 in 10.0 mi Calm Calm - N/A   Clear
10:35 PM 35.6 °F 32.8 °F 28.4 °F 75% 30.12 in 10.0 mi WNW 3.5 mph - N/A   Clear
10:55 PM 33.8 °F 30.8 °F 28.4 °F 81% 30.11 in 10.0 mi WNW 3.5 mph - N/A   Clear
11:15 PM 33.8 °F 30.8 °F 28.4 °F 81% 30.11 in 10.0 mi WNW 3.5 mph - N/A   Clear
11:35 PM 33.8 °F 30.8 °F 28.4 °F 81% 30.11 in 10.0 mi WNW 3.5 mph - N/A   Clear
11:55 PM 33.8 °F 29.6 °F 28.4 °F 81% 30.12 in 10.0 mi West 4.6 mph - N/A   Clear